N410HA KMQI-KFFA

Flight info

Callsign N410HA
Flight time 0h -10m
Altitude 2500
Route STUMPY POINT THUS VPUMO
Aircraft ZZZZ/L-VGD/C

Departure

Time 2026-04-25 18:57
Airport Dare County Regional Airport (KMQI)

Arrival

Time 2026-04-25 18:47
Airport First Flight Airport (KFFA)
Time Latitude Longitude Altitude Speed Heading
2026-04-25 18:46 35.91866 -75.69164 11 ft 0 kts 197°
2026-04-25 18:56 35.91864 -75.69165 20 ft 3 kts 194°
2026-04-25 18:56 35.91839 -75.69182 162 ft 8 kts 183°
2026-04-25 18:56 35.91823 -75.69190 333 ft 7 kts 177°
2026-04-25 18:57 35.91850 -75.69209 514 ft 15 kts 203°
2026-04-25 18:57 35.91744 -75.69405 723 ft 57 kts 211°
2026-04-25 18:57 35.91201 -75.69732 854 ft 104 kts 198°
2026-04-25 18:57 35.90975 -75.69841 856 ft 103 kts 197°
2026-04-25 18:58 35.89831 -75.70094 917 ft 96 kts 187°
2026-04-25 18:58 35.88585 -75.70312 1107 ft 86 kts 187°
2026-04-25 18:58 35.88007 -75.70404 1248 ft 75 kts 188°
2026-04-25 18:59 35.86954 -75.70639 1533 ft 84 kts 204°
2026-04-25 18:59 35.85766 -75.71199 1766 ft 96 kts 200°
2026-04-25 19:00 35.84434 -75.71729 1983 ft 102 kts 197°
2026-04-25 19:00 35.83746 -75.71998 2076 ft 105 kts 188°
2026-04-25 19:01 35.82272 -75.71881 2291 ft 106 kts 174°
2026-04-25 19:01 35.81542 -75.71862 2400 ft 105 kts 182°
2026-04-25 19:01 35.80789 -75.71793 2447 ft 111 kts 184°
2026-04-25 19:01 35.79989 -75.71742 2449 ft 117 kts 176°
2026-04-25 19:02 35.78427 -75.71652 2455 ft 105 kts 180°
2026-04-25 19:02 35.77710 -75.71603 2454 ft 102 kts 179°
2026-04-25 19:02 35.77010 -75.71555 2455 ft 99 kts 180°
2026-04-25 19:03 35.76097 -75.71494 2455 ft 97 kts 180°
2026-04-25 19:03 35.74987 -75.71415 2456 ft 94 kts 180°
2026-04-25 19:03 35.74336 -75.71370 2457 ft 92 kts 179°
2026-04-25 19:04 35.73046 -75.71275 2463 ft 92 kts 180°
2026-04-25 19:04 35.72410 -75.71223 2464 ft 92 kts 177°
2026-04-25 19:05 35.71738 -75.69939 2469 ft 105 kts 86°
2026-04-25 19:05 35.71960 -75.68143 2467 ft 105 kts 86°
2026-04-25 19:05 35.72075 -75.67248 2468 ft 104 kts 86°
2026-04-25 19:06 35.72185 -75.66359 2475 ft 104 kts 86°
2026-04-25 19:06 35.72411 -75.64572 2478 ft 105 kts 86°
2026-04-25 19:06 35.72526 -75.63666 2476 ft 105 kts 86°
2026-04-25 19:07 35.72747 -75.61870 2474 ft 105 kts 85°
2026-04-25 19:07 35.72860 -75.60969 2470 ft 105 kts 85°
2026-04-25 19:08 35.73087 -75.59180 2472 ft 104 kts 86°
2026-04-25 19:08 35.73199 -75.58308 2476 ft 104 kts 85°
2026-04-25 19:09 35.73544 -75.55636 2482 ft 105 kts 85°
2026-04-25 19:09 35.73619 -75.55041 2477 ft 105 kts 85°
2026-04-25 19:09 35.74229 -75.53127 2477 ft 109 kts 30°
2026-04-25 19:10 35.74949 -75.52949 2481 ft 105 kts 349°
2026-04-25 19:10 35.75684 -75.53051 2482 ft 106 kts 349°
2026-04-25 19:10 35.76418 -75.53160 2479 ft 106 kts 349°
2026-04-25 19:10 35.77154 -75.53273 2482 ft 106 kts 348°
2026-04-25 19:11 35.77888 -75.53384 2479 ft 106 kts 348°
2026-04-25 19:11 35.78625 -75.53493 2464 ft 104 kts 348°
2026-04-25 19:11 35.79349 -75.53597 2436 ft 103 kts 348°
2026-04-25 19:11 35.80063 -75.53697 2444 ft 105 kts 348°
2026-04-25 19:12 35.80801 -75.53880 2446 ft 107 kts 339°
2026-04-25 19:12 35.81516 -75.54133 2422 ft 106 kts 338°
2026-04-25 19:12 35.82235 -75.54380 2361 ft 107 kts 338°
2026-04-25 19:12 35.82956 -75.54636 2280 ft 109 kts 339°
2026-04-25 19:13 35.83752 -75.54773 2114 ft 119 kts
2026-04-25 19:13 35.84529 -75.55067 2033 ft 114 kts 326°
2026-04-25 19:13 35.85231 -75.55546 1955 ft 114 kts 326°
2026-04-25 19:13 35.85926 -75.56027 1872 ft 114 kts 326°
2026-04-25 19:14 35.86632 -75.56519 1792 ft 115 kts 325°
2026-04-25 19:14 35.86867 -75.56684 1768 ft 115 kts 325°
2026-04-25 19:14 35.88036 -75.57505 1633 ft 115 kts 325°
2026-04-25 19:14 35.88734 -75.57993 1545 ft 115 kts 326°
2026-04-25 19:15 35.89434 -75.58482 1469 ft 115 kts 326°
2026-04-25 19:15 35.90129 -75.58967 1398 ft 112 kts 326°
2026-04-25 19:15 35.90809 -75.59437 1399 ft 111 kts 326°
2026-04-25 19:15 35.91489 -75.59912 1404 ft 110 kts 326°
2026-04-25 19:16 35.92157 -75.60383 1396 ft 109 kts 326°
2026-04-25 19:16 35.92825 -75.60859 1406 ft 109 kts 324°
2026-04-25 19:16 35.93484 -75.61335 1405 ft 109 kts 325°
2026-04-25 19:16 35.94146 -75.61809 1403 ft 109 kts 326°
2026-04-25 19:17 35.94813 -75.62296 1405 ft 109 kts 326°
2026-04-25 19:17 35.95533 -75.62666 1400 ft 111 kts 341°
2026-04-25 19:17 35.96260 -75.62985 1406 ft 111 kts 337°
2026-04-25 19:17 35.97003 -75.63345 1366 ft 115 kts 336°
2026-04-25 19:18 35.97747 -75.63731 1362 ft 114 kts 329°
2026-04-25 19:18 35.98429 -75.64171 1439 ft 106 kts 330°
2026-04-25 19:18 35.99132 -75.64560 1364 ft 112 kts 331°
2026-04-25 19:18 35.99849 -75.64913 1259 ft 109 kts 336°
2026-04-25 19:19 36.00536 -75.65263 1213 ft 98 kts 333°
2026-04-25 19:19 36.01086 -75.65568 1176 ft 72 kts 330°
2026-04-25 19:19 36.01454 -75.65769 1077 ft 47 kts 314°
2026-04-25 19:19 36.01616 -75.65916 950 ft 41 kts 284°
2026-04-25 19:20 36.01768 -75.66236 646 ft 26 kts 263°
2026-04-25 19:20 36.01779 -75.66478 604 ft 35 kts 238°
2026-04-25 19:20 36.01675 -75.66808 554 ft 44 kts 227°
2026-04-25 19:20 36.01533 -75.67113 506 ft 35 kts 204°
2026-04-25 19:21 36.01415 -75.67256 407 ft 18 kts 134°
2026-04-25 19:21 36.01421 -75.67213 242 ft 6 kts 99°
2026-04-25 19:21 36.01430 -75.67203 141 ft 5 kts 102°
2026-04-25 19:22 36.01433 -75.67179 38 ft 2 kts 102°
2026-04-25 19:22 36.01432 -75.67173 14 ft 1 kts 102°
2026-04-25 19:22 36.01430 -75.67159 11 ft 0 kts 102°